KO4ZGL-13 Weather Reports


time (UTC)temp
C
wind
direction
speed
KPH
gust
KPH
rain 1hr
cm
rain 24hr
cm
rain mn
cm
humidity
%
barometer
mb
20260505202216 27 27 8.0 9.7 0.00 0.00 0.00 53 1016.5
20260505201713 26 321 1.6 1.6 0.00 0.00 0.00 55 1016.6
20260505201211 26 333 6.4 8.0 0.00 0.00 0.00 52 1016.6
20260505200709 26 50 8.0 11.3 0.00 0.00 0.00 55 1016.5
20260505200205 27 40 8.0 12.9 0.00 0.00 0.00 54 1016.6
20260505195701 27 279 4.8 4.8 0.00 0.00 0.00 49 1016.7
20260505195158 27 44 8.0 11.3 0.00 0.00 0.00 51 1016.5
20260505194656 27 347 8.0 11.3 0.00 0.00 0.00 50 1016.8
20260505194152 27 11 1.6 3.2 0.00 0.00 0.00 52 1016.8
20260505193648 27 342 3.2 8.0 0.00 0.00 0.00 49 1016.9
20260505193145 27 329 1.6 1.6 0.00 0.00 0.00 53 1017.1
20260505192644 27 358 6.4 8.0 0.00 0.00 0.00 50 1017.2
20260505192141 27 315 0.0 1.6 0.00 0.00 0.00 50 1017.4
20260505191639 27 5 8.0 11.3 0.00 0.00 0.00 49 1017.4
20260505191137 27 37 6.4 9.7 0.00 0.00 0.00 50 1017.5
20260505190633 27 23 9.7 14.5 0.00 0.00 0.00 51 1017.6
20260505190127 27 316 1.6 1.6 0.00 0.00 0.00 51 1017.7
20260505185625 28 325 0.0 1.6 0.00 0.00 0.00 53 1017.8
20260505185121 27 333 4.8 8.0 0.00 0.00 0.00 48 1017.5
20260505184618 27 359 3.2 4.8 0.00 0.00 0.00 51 1017.6
20260505184114 27 261 4.8 8.0 0.00 0.00 0.00 50 1017.7
20260505183611 27 351 1.6 1.6 0.00 0.00 0.00 49 1017.6
20260505183109 27 321 1.6 1.6 0.00 0.00 0.00 52 1017.5
20260505182605 27 336 1.6 1.6 0.00 0.00 0.00 50 1017.5
20260505182102 27 322 4.8 8.0 0.00 0.00 0.00 51 1017.5
20260505181559 27 2 6.4 12.9 0.00 0.00 0.00 50 1017.3
20260505181056 27 273 1.6 3.2 0.00 0.00 0.00 50 1017.4
20260505180551 27 284 3.2 3.2 0.00 0.00 0.00 51 1017.4
20260505180050 27 316 1.6 3.2 0.00 0.00 0.00 53 1017.8
20260505175550 27 357 8.0 11.3 0.00 0.00 0.00 52 1017.4
20260505175047 27 325 1.6 1.6 0.00 0.00 0.00 54 1017.4
20260505174544 27 331 6.4 11.3 0.00 0.00 0.00 52 1017.7
20260505174040 26 331 1.6 1.6 0.00 0.00 0.00 52 1017.6
20260505173537 27 326 6.4 9.7 0.00 0.00 0.00 52 1017.7
20260505173033 27 357 3.2 3.2 0.00 0.00 0.00 53 1017.5
20260505172531 27 5 4.8 9.7 0.00 0.00 0.00 55 1017.5
20260505172027 27 311 0.0 1.6 0.00 0.00 0.00 54 1017.9
20260505171522 26 315 1.6 3.2 0.00 0.00 0.00 55 1018.1
20260505171020 26 4 1.6 3.2 0.00 0.00 0.00 54 1018.0
20260505170517 26 33 4.8 8.0 0.00 0.00 0.00 56 1018.0
20260505170013 27 355 1.6 3.2 0.00 0.00 0.00 53 1018.0
20260505165508 27 325 3.2 3.2 0.00 0.00 0.00 55 1018.0
20260505165004 26 315 0.0 1.6 0.00 0.00 0.00 58 1018.1
20260505164500 26 353 4.8 9.7 0.00 0.00 0.00 57 1018.4
20260505163958 26 357 4.8 9.7 0.00 0.00 0.00 58 1018.5
20260505163457 26 343 4.8 8.0 0.00 0.00 0.00 58 1018.6
20260505162956 26 309 4.8 4.8 0.00 0.00 0.00 57 1018.7
20260505162451 26 331 4.8 4.8 0.00 0.00 0.00 55 1018.6
20260505161948 26 320 1.6 3.2 0.00 0.00 0.00 58 1018.6
20260505161444 26 321 0.0 0.0 0.00 0.00 0.00 60 1018.6
20260505160942 26 17 3.2 4.8 0.00 0.00 0.00 59 1018.9
20260505160440 26 40 4.8 8.0 0.00 0.00 0.00 58 1018.9
20260505152910 25 339 0.0 1.6 0.00 0.00 0.00 63 1018.9
20260505152407 25 299 1.6 1.6 0.00 0.00 0.00 60 1018.9
20260505151902 25 337 4.8 4.8 0.00 0.00 0.00 61 1018.7
20260505151359 25 302 1.6 3.2 0.00 0.00 0.00 61 1018.8
20260505150855 24 321 0.0 1.6 0.00 0.00 0.00 62 1018.9
20260505150352 24 301 6.4 12.9 0.00 0.00 0.00 61 1018.8
20260505140317 22 319 1.6 3.2 0.00 0.00 0.00 70 1018.7
20260505130240 18 311 0.0 0.0 0.00 0.00 0.00 95 1018.6
20260505124731 15 313 0.0 0.0 0.00 0.00 0.00 98 1018.5
20260505124228 15 313 0.0 0.0 0.00 0.00 0.00 98 1018.6
20260505123723 14 317 0.0 0.0 0.00 0.00 0.00 98 1018.6
20260505123220 13 318 0.0 0.0 0.00 0.00 0.00 98 1018.6
20260505122717 13 318 0.0 0.0 0.00 0.00 0.00 98 1018.6
20260505122214 12 318 0.0 0.0 0.00 0.00 0.00 98 1018.5
20260505121710 12 318 0.0 0.0 0.00 0.00 0.00 98 1018.6
20260505121207 11 318 0.0 0.0 0.00 0.00 0.00 98 1018.9
20260505120704 11 318 0.0 0.0 0.00 0.00 0.00 98 1018.5
20260505120200 11 318 0.0 0.0 0.00 0.00 0.00 98 1018.8
20260505115653 11 319 0.0 0.0 0.00 0.00 0.00 98 1018.5
20260505115151 11 319 0.0 0.0 0.00 0.00 0.00 98 1018.4
20260505114648 11 319 0.0 0.0 0.00 0.00 0.00 98 1018.4
20260505114144 11 319 0.0 0.0 0.00 0.00 0.00 98 1018.4
20260505113641 10 319 0.0 0.0 0.00 0.00 0.00 98 1018.4
20260505113137 10 320 0.0 0.0 0.00 0.00 0.00 98 1018.4
20260505112633 10 319 0.0 0.0 0.00 0.00 0.00 98 1018.2
20260505112132 10 320 0.0 0.0 0.00 0.00 0.00 98 1018.3
20260505111626 10 321 0.0 0.0 0.00 0.00 0.00 98 1018.2
20260505111122 10 319 0.0 0.0 0.00 0.00 0.00 98 1018.0
20260505110618 10 319 0.0 0.0 0.00 0.00 0.00 98 1018.2
20260505110115 10 324 0.0 0.0 0.00 0.00 0.00 98 1017.9
20260505102051 10 321 0.0 0.0 0.00 0.00 0.00 98 1017.6
20260505101549 10 321 0.0 0.0 0.00 0.00 0.00 98 1017.5
20260505101045 10 319 0.0 0.0 0.00 0.00 0.00 98 1017.5
20260505100542 10 319 0.0 0.0 0.00 0.00 0.00 98 1017.4
20260505100039 10 319 0.0 0.0 0.00 0.00 0.00 98 1017.3
20260505095535 10 319 0.0 0.0 0.00 0.00 0.00 98 1017.2
20260505095032 10 319 0.0 0.0 0.00 0.00 0.00 98 1017.3
20260505094528 10 319 0.0 0.0 0.00 0.00 0.00 98 1017.3
20260505094025 10 319 0.0 0.0 0.00 0.00 0.00 98 1017.4
20260505093521 10 319 0.0 0.0 0.00 0.00 0.00 98 1017.3
20260505093019 10 319 0.0 0.0 0.00 0.00 0.00 98 1017.4
20260505092516 10 319 0.0 0.0 0.00 0.00 0.00 98 1017.1
20260505092014 10 319 0.0 0.0 0.00 0.00 0.00 98 1017.1
20260505091511 10 319 0.0 0.0 0.00 0.00 0.00 97 1017.1
20260505091009 10 319 0.0 0.0 0.00 0.00 0.00 97 1017.1
20260505090507 10 320 0.0 0.0 0.00 0.00 0.00 97 1016.9
20260505090004 10 320 0.0 0.0 0.00 0.00 0.00 97 1017.1
20260505085502 10 320 0.0 0.0 0.00 0.00 0.00 97 1017.2
20260505085000 10 320 0.0 0.0 0.00 0.00 0.00 97 1017.2
20260505084458 10 320 0.0 0.0 0.00 0.00 0.00 97 1016.9
20260505083955 10 320 0.0 0.0 0.00 0.00 0.00 97 1016.9
20260505083452 10 320 0.0 0.0 0.00 0.00 0.00 97 1016.9
20260505082949 10 320 0.0 0.0 0.00 0.00 0.00 97 1016.8
20260505082444 11 320 0.0 0.0 0.00 0.00 0.00 97 1017.0
20260505081942 11 320 0.0 0.0 0.00 0.00 0.00 97 1016.7
20260505081438 11 320 0.0 0.0 0.00 0.00 0.00 97 1016.7
20260505080935 11 320 0.0 0.0 0.00 0.00 0.00 97 1016.8
20260505080431 11 320 0.0 0.0 0.00 0.00 0.00 97 1016.7
20260505075926 11 320 0.0 0.0 0.00 0.00 0.00 97 1016.9
20260505075424 11 320 0.0 0.0 0.00 0.00 0.00 97 1016.9
20260505074921 11 320 0.0 0.0 0.00 0.00 0.00 97 1016.6
20260505074419 11 320 0.0 0.0 0.00 0.00 0.00 97 1016.6
20260505073915 11 320 0.0 0.0 0.00 0.00 0.00 97 1016.7
20260505073413 11 320 0.0 0.0 0.00 0.00 0.00 97 1016.7
20260505072910 11 320 0.0 0.0 0.00 0.00 0.00 96 1016.6
20260505072406 11 320 0.0 0.0 0.00 0.00 0.00 96 1016.6
20260505071902 11 321 0.0 0.0 0.00 0.00 0.00 96 1016.4
20260505071359 11 320 0.0 0.0 0.00 0.00 0.00 96 1016.5
20260505070857 11 320 0.0 0.0 0.00 0.00 0.00 96 1016.5
20260505070353 11 320 0.0 0.0 0.00 0.00 0.00 96 1016.7
20260505065848 11 321 0.0 0.0 0.00 0.00 0.00 96 1016.6
20260505065346 11 321 0.0 0.0 0.00 0.00 0.00 96 1016.6
20260505064842 11 321 0.0 0.0 0.00 0.00 0.00 96 1016.8
20260505064339 11 321 0.0 0.0 0.00 0.00 0.00 96 1016.8
20260505063838 11 321 0.0 0.0 0.00 0.00 0.00 96 1016.7
20260505063333 11 321 0.0 0.0 0.00 0.00 0.00 96 1016.9
20260505062830 11 321 0.0 0.0 0.00 0.00 0.00 96 1016.8
20260505062327 11 321 0.0 0.0 0.00 0.00 0.00 96 1017.2
20260505061824 11 321 0.0 0.0 0.00 0.00 0.00 95 1017.1
20260505061322 11 321 0.0 0.0 0.00 0.00 0.00 95 1017.1
20260505060820 11 321 0.0 0.0 0.00 0.00 0.00 95 1017.3
20260505060316 11 321 0.0 0.0 0.00 0.00 0.00 95 1017.4
20260505055812 12 321 0.0 0.0 0.00 0.00 0.00 95 1017.5
20260505055308 12 321 0.0 0.0 0.00 0.00 0.00 95 1017.4
20260505054806 12 321 0.0 0.0 0.00 0.00 0.00 95 1017.4
20260505054303 12 321 0.0 0.0 0.00 0.00 0.00 94 1017.6
20260505053801 12 321 0.0 0.0 0.00 0.00 0.00 94 1017.5
20260505053258 12 321 0.0 0.0 0.00 0.00 0.00 94 1017.7
20260505052755 12 321 0.0 0.0 0.00 0.00 0.00 94 1017.7
20260505052252 12 321 0.0 0.0 0.00 0.00 0.00 93 1017.6
20260505051749 12 321 0.0 0.0 0.00 0.00 0.00 93 1017.8
20260505051247 12 319 0.0 0.0 0.00 0.00 0.00 93 1018.0
20260505050744 12 319 0.0 0.0 0.00 0.00 0.00 92 1017.9
20260505050243 12 319 0.0 0.0 0.00 0.00 0.00 92 1017.8
20260505041712 13 319 0.0 0.0 0.00 0.00 0.00 90 1018.1
20260505041209 13 319 0.0 0.0 0.00 0.00 0.00 89 1017.9
20260505040707 13 319 0.0 0.0 0.00 0.00 0.00 89 1018.1
20260505040204 13 319 0.0 0.0 0.00 0.00 0.00 88 1018.0
20260505035701 13 319 0.0 0.0 0.00 0.00 0.00 88 1017.9
20260505035156 13 319 0.0 0.0 0.00 0.00 0.00 88 1018.2
20260505034653 13 318 0.0 0.0 0.00 0.00 0.00 87 1017.8
20260505034150 13 318 0.0 0.0 0.00 0.00 0.00 87 1018.1
20260505033646 13 318 0.0 0.0 0.00 0.00 0.00 86 1017.8
20260505033145 14 319 0.0 0.0 0.00 0.00 0.00 86 1018.0
20260505032642 14 319 0.0 0.0 0.00 0.00 0.00 85 1018.2
20260505032133 14 319 0.0 0.0 0.00 0.00 0.00 84 1018.1
20260505031630 14 319 0.0 0.0 0.00 0.00 0.00 83 1018.1
20260505031126 14 319 0.0 0.0 0.00 0.00 0.00 83 1018.0
20260505030624 15 319 0.0 0.0 0.00 0.00 0.00 82 1018.1
20260505030120 15 320 0.0 0.0 0.00 0.00 0.00 82 1017.9
20260505025615 15 320 0.0 0.0 0.00 0.00 0.00 82 1018.1
20260505025114 15 320 0.0 0.0 0.00 0.00 0.00 82 1018.0
20260505024611 15 320 0.0 0.0 0.00 0.00 0.00 81 1017.9
20260505024109 15 320 0.0 0.0 0.00 0.00 0.00 80 1017.9
20260505023606 15 319 0.0 0.0 0.00 0.00 0.00 80 1017.9
20260505023103 15 320 0.0 0.0 0.00 0.00 0.00 79 1017.7
20260505022600 15 319 0.0 0.0 0.00 0.00 0.00 78 1017.8
20260505022057 15 320 0.0 0.0 0.00 0.00 0.00 78 1018.0
20260505021554 16 320 0.0 0.0 0.00 0.00 0.00 77 1017.8
20260505021051 16 320 0.0 0.0 0.00 0.00 0.00 76 1017.8
20260505020550 16 320 0.0 0.0 0.00 0.00 0.00 75 1017.8
20260505020048 16 320 0.0 0.0 0.00 0.00 0.00 74 1017.7
20260505015545 16 320 0.0 0.0 0.00 0.00 0.00 74 1017.6
20260505015041 16 324 0.0 0.0 0.00 0.00 0.00 73 1017.8
20260505014538 17 324 0.0 0.0 0.00 0.00 0.00 72 1017.5
20260505014036 17 324 0.0 0.0 0.00 0.00 0.00 72 1017.5
20260505013532 17 321 0.0 0.0 0.00 0.00 0.00 71 1017.8
20260505013030 17 318 0.0 0.0 0.00 0.00 0.00 70 1017.6
20260505012528 17 326 0.0 0.0 0.00 0.00 0.00 70 1017.4
20260505012025 17 322 0.0 0.0 0.00 0.00 0.00 69 1017.5
20260505011520 17 327 0.0 0.0 0.00 0.00 0.00 68 1017.6
20260505011018 17 335 1.6 1.6 0.00 0.00 0.00 68 1017.2
20260505010513 18 320 0.0 0.0 0.00 0.00 0.00 67 1017.3
20260505010010 18 325 1.6 3.2 0.00 0.00 0.00 65 1017.3
20260505005506 18 314 1.6 3.2 0.00 0.00 0.00 64 1017.3
20260505005004 18 325 0.0 0.0 0.00 0.00 0.00 64 1017.0
20260505004501 18 320 1.6 1.6 0.00 0.00 0.00 64 1017.3
20260505003958 18 326 1.6 3.2 0.00 0.00 0.00 63 1017.2
20260505003455 19 322 0.0 1.6 0.00 0.00 0.00 62 1017.1
20260505002950 19 6 3.2 3.2 0.00 0.00 0.00 62 1017.2
20260505002447 19 329 1.6 3.2 0.00 0.00 0.00 61 1017.1
20260505001945 20 326 0.0 1.6 0.00 0.00 0.00 62 1017.1
20260505001442 20 325 0.0 1.6 0.00 0.00 0.00 62 1017.0
20260505000939 20 327 3.2 3.2 0.00 0.00 0.00 61 1017.1
20260505000437 20 2 3.2 4.8 0.00 0.00 0.00 61 1017.1
20260504235934 20 323 0.0 0.0 0.00 0.00 0.00 61 1016.9
20260504235431 20 344 3.2 3.2 0.00 0.00 0.00 61 1016.9
20260504234927 20 323 1.6 1.6 0.00 0.00 0.00 61 1017.0
20260504234425 20 332 3.2 3.2 0.00 0.00 0.00 60 1017.0
20260504233921 20 344 1.6 1.6 0.00 0.00 0.00 61 1016.9
20260504233417 21 8 4.8 4.8 0.00 0.00 0.00 61 1017.0
20260504232914 21 304 0.0 0.0 0.00 0.00 0.00 60 1016.8
20260504232411 21 325 6.4 9.7 0.00 0.00 0.00 59 1016.8
20260504231908 21 354 6.4 9.7 0.00 0.00 0.00 59 1016.9
20260504231404 21 3 4.8 4.8 0.00 0.00 0.00 59 1016.8
20260504230901 21 321 3.2 4.8 0.00 0.00 0.00 58 1016.8
20260504230358 21 341 6.4 8.0 0.00 0.00 0.00 58 1016.6
20260504225857 21 330 3.2 3.2 0.00 0.00 0.00 58 1016.8
20260504225353 21 324 3.2 3.2 0.00 0.00 0.00 58 1016.6
20260504224851 22 349 1.6 3.2 0.00 0.00 0.00 58 1016.8
20260504224347 22 332 1.6 1.6 0.00 0.00 0.00 57 1016.6
20260504223844 22 338 4.8 8.0 0.00 0.00 0.00 55 1016.8
20260504223339 22 329 4.8 4.8 0.00 0.00 0.00 55 1016.9
20260504222836 22 354 4.8 8.0 0.00 0.00 0.00 55 1016.8
20260504222333 22 314 3.2 4.8 0.00 0.00 0.00 55 1016.8
20260504221832 22 44 4.8 8.0 0.00 0.00 0.00 54 1016.6
20260504221328 23 334 6.4 8.0 0.00 0.00 0.00 54 1016.7
20260504220825 23 6 8.0 11.3 0.00 0.00 0.00 53 1016.6
20260504220322 23 346 8.0 12.9 0.00 0.00 0.00 53 1016.7
20260504215819 23 257 4.8 4.8 0.00 0.00 0.00 53 1016.5
20260504215315 23 2 11.3 12.9 0.00 0.00 0.00 52 1016.5
20260504214811 24 326 1.6 1.6 0.00 0.00 0.00 51 1016.4
20260504214309 23 319 4.8 8.0 0.00 0.00 0.00 52 1016.5
20260504213805 23 23 8.0 9.7 0.00 0.00 0.00 52 1016.3
20260504213301 23 343 1.6 1.6 0.00 0.00 0.00 52 1016.4
20260504212759 23 14 11.3 14.5 0.00 0.00 0.00 51 1016.2
20260504212255 24 307 8.0 11.3 0.00 0.00 0.00 51 1016.3
20260504211752 24 350 8.0 11.3 0.00 0.00 0.00 50 1016.4
20260504211248 25 13 8.0 11.3 0.00 0.00 0.00 49 1016.1
20260504210746 25 320 3.2 3.2 0.00 0.00 0.00 50 1016.3
20260504210243 25 334 4.8 8.0 0.00 0.00 0.00 49 1016.2
20260504205740 25 30 3.2 8.0 0.00 0.00 0.00 49 1016.3
20260504205238 26 321 1.6 3.2 0.00 0.00 0.00 48 1016.1
20260504204735 26 271 3.2 3.2 0.00 0.00 0.00 49 1016.2
20260504204233 26 36 4.8 4.8 0.00 0.00 0.00 45 1015.7
20260504203733 27 321 3.2 4.8 0.00 0.00 0.00 43 1016.0
20260504203230 27 250 3.2 3.2 0.00 0.00 0.00 42 1016.3
20260504202729 27 335 4.8 4.8 0.00 0.00 0.00 40 1016.1